Date String (YYYY-MM-DD hh:mm:ss) UTC,Instrument flags,absolute air pressure of the measurement (hPa),sample flow rate (lpm),inlet stack bypass flow (lpm),air temperature of the measurement (°C),ambient temperature measured by the external sensor (°C),aerosol sample conditioner tube jacket temperature (°C),OPC LED temperature (°C),internal box temperature (°C),relative humidity of the measurement (%),span deviation,mass concentration of particles derived from Lorenz-Mie calculation of OPC scattering (μg/m³),mass concentration of particles derived from Lorenz-Mie calculation of OPC scattering (μg/m³),mass concentration of particles derived from Lorenz-Mie calculation of OPC scattering (μg/m³)
DateTimeUTC,F1_M11,P_M11,Q1_M11,Q2_M11,T1_M11,T2_M11,T3_M11,T4_M11,T5_M11,U1_M11,ZSPAN_M11,X2_M11,X0_M11,X1_M11
2024-03-22 06:00:00,SystemResetWarning,0828.4,5.00,000.00,024.0,023.0,000.0,032.6,025.8,16.4,0000.0,0001.74,0003.64,0001.23
2024-03-22 06:01:00,SystemResetWarning,0828.4,5.00,000.00,024.0,023.0,000.0,032.6,025.8,17.0,0000.0,0001.77,0003.61,0001.26
2024-03-22 06:02:00,SystemResetWarning,0828.4,5.00,000.00,024.0,023.0,000.0,032.6,025.7,16.9,0000.0,0001.80,0003.57,0001.27
2024-03-22 06:03:00,SystemResetWarning,0828.4,5.00,000.00,023.9,023.0,000.0,032.5,025.7,17.2,0000.0,0001.89,0003.69,0001.30
2024-03-22 06:04:00,SystemResetWarning,0828.5,5.00,000.00,023.9,022.9,000.0,032.5,025.7,17.5,0000.0,0002.01,0003.95,0001.33
2024-03-22 06:05:00,SystemResetWarning,0828.5,5.00,000.00,023.9,022.9,000.0,032.5,025.7,17.7,0000.0,0002.22,0005.75,0001.37
2024-03-22 06:06:00,SystemResetWarning,0828.5,5.00,000.00,023.9,022.9,000.0,032.5,025.7,17.7,0000.0,0002.46,0008.83,0001.43
2024-03-22 06:07:00,SystemResetWarning,0828.6,5.00,000.00,023.9,022.8,000.0,032.5,025.6,17.5,0000.0,0002.81,0010.69,0001.55
2024-03-22 06:08:00,SystemResetWarning,0828.6,5.01,000.00,023.9,022.8,000.0,032.5,025.6,17.5,0000.0,0003.12,0011.62,0001.67
2024-03-22 06:09:00,SystemResetWarning,0828.6,5.01,000.00,023.8,022.8,000.0,032.5,025.6,17.5,0000.0,0003.30,0013.63,0001.79
2024-03-22 06:10:00,SystemResetWarning,0828.6,5.00,000.00,023.8,022.8,000.0,032.5,025.6,17.5,0000.0,0003.48,0014.94,0001.92
2024-03-22 06:11:00,SystemResetWarning,0828.6,4.99,000.00,023.8,022.7,000.0,032.5,025.6,17.6,0000.0,0003.73,0017.30,0002.05
2024-03-22 06:12:00,SystemResetWarning,0828.7,4.99,000.00,023.8,022.8,000.0,032.5,025.6,17.6,0000.0,0004.04,0019.18,0002.16
2024-03-22 06:13:00,SystemResetWarning,0828.7,5.01,000.00,023.8,022.8,000.0,032.5,025.6,17.5,0000.0,0004.25,0020.47,0002.28
2024-03-22 06:14:00,SystemResetWarning,0828.7,5.01,000.00,023.8,022.7,000.0,032.5,025.6,17.4,0000.0,0004.41,0022.14,0002.37
2024-03-22 06:15:00,SystemResetWarning,0828.7,5.01,000.00,023.8,022.7,000.0,032.5,025.6,17.4,0000.0,0004.50,0022.56,0002.46
2024-03-22 06:16:00,SystemResetWarning,0828.7,5.00,000.00,023.8,022.7,000.0,032.4,025.6,17.4,0000.0,0004.59,0023.14,0002.55
2024-03-22 06:17:00,SystemResetWarning,0828.8,4.99,000.00,023.8,022.7,000.0,032.4,025.5,17.3,0000.0,0004.65,0022.59,0002.62
2024-03-22 06:18:00,SystemResetWarning,0828.8,4.99,000.00,023.7,022.6,000.0,032.4,025.5,17.3,0000.0,0004.65,0021.83,0002.65
2024-03-22 06:19:00,SystemResetWarning,0828.9,5.00,000.00,023.7,022.6,000.0,032.4,025.5,17.3,0000.0,0004.69,0023.30,0002.69
2024-03-22 06:20:00,SystemResetWarning,0828.9,5.00,000.00,023.7,022.6,000.0,032.4,025.5,17.3,0000.0,0004.72,0023.24,0002.70
2024-03-22 06:21:00,SystemResetWarning,0829.0,5.00,000.00,023.7,022.6,000.0,032.4,025.5,17.3,0000.0,0004.74,0022.90,0002.70
2024-03-22 06:22:00,SystemResetWarning,0829.0,5.00,000.00,023.7,022.6,000.0,032.4,025.5,17.3,0000.0,0004.68,0021.59,0002.69
2024-03-22 06:23:00,SystemResetWarning,0828.9,5.00,000.00,023.7,022.6,000.0,032.4,025.5,17.3,0000.0,0004.54,0020.90,0002.69
2024-03-22 06:24:00,SystemResetWarning,0829.0,4.99,000.00,023.7,022.5,000.0,032.4,025.5,17.3,0000.0,0004.46,0021.76,0002.69
2024-03-22 06:25:00,SystemResetWarning,0829.0,4.99,000.00,023.7,022.5,000.0,032.3,025.5,17.3,0000.0,0004.40,0021.50,0002.70
2024-03-22 06:26:00,SystemResetWarning,0829.0,4.99,000.00,023.6,022.5,000.0,032.3,025.5,17.3,0000.0,0004.41,0022.00,0002.71
2024-03-22 06:27:00,SystemResetWarning,0828.9,5.00,000.00,023.6,022.5,000.0,032.3,025.5,17.4,0000.0,0004.42,0022.09,0002.72
2024-03-22 06:28:00,SystemResetWarning,0829.0,5.00,000.00,023.6,022.5,000.0,032.3,025.4,17.4,0000.0,0004.45,0021.45,0002.74
2024-03-22 06:29:00,SystemResetWarning,0829.1,5.00,000.00,023.6,022.5,000.0,032.3,025.4,17.4,0000.0,0004.48,0020.79,0002.74
2024-03-22 06:30:00,SystemResetWarning,0829.1,5.00,000.00,023.6,022.5,000.0,032.3,025.4,17.4,0000.0,0004.40,0019.49,0002.72
2024-03-22 06:31:00,SystemResetWarning,0829.1,5.00,000.00,023.6,022.5,000.0,032.3,025.4,17.4,0000.0,0004.32,0019.48,0002.72
2024-03-22 06:32:00,SystemResetWarning,0829.1,5.00,000.00,023.6,022.5,000.0,032.3,025.4,17.4,0000.0,0004.31,0019.41,0002.71
2024-03-22 06:33:00,SystemResetWarning,0829.1,5.00,000.00,023.6,022.5,000.0,032.3,025.4,17.4,0000.0,0004.31,0019.21,0002.71
2024-03-22 06:34:00,SystemResetWarning,0829.2,5.00,000.00,023.6,022.5,000.0,032.3,025.4,17.4,0000.0,0004.33,0018.67,0002.72
2024-03-22 06:35:00,SystemResetWarning,0829.2,5.00,000.00,023.6,022.5,000.0,032.2,025.4,17.4,0000.0,0004.30,0016.98,0002.70
2024-03-22 06:36:00,SystemResetWarning,0829.3,5.00,000.00,023.6,022.5,000.0,032.2,025.4,17.4,0000.0,0004.29,0015.97,0002.70
2024-03-22 06:37:00,SystemResetWarning,0829.4,5.00,000.00,023.5,022.5,000.0,032.2,025.4,17.4,0000.0,0004.26,0015.79,0002.70
2024-03-22 06:38:00,SystemResetWarning,0829.4,5.00,000.00,023.5,022.5,000.0,032.2,025.4,17.4,0000.0,0004.23,0015.01,0002.68
2024-03-22 06:39:00,SystemResetWarning,0829.3,5.00,000.00,023.5,022.5,000.0,032.2,025.4,17.4,0000.0,0004.15,0014.75,0002.65
2024-03-22 06:40:00,SystemResetWarning,0829.3,5.00,000.00,023.5,022.5,000.0,032.2,025.4,17.4,0000.0,0004.14,0015.08,0002.65
2024-03-22 06:41:00,SystemResetWarning,0829.3,5.00,000.00,023.5,022.5,000.0,032.2,025.4,17.4,0000.0,0004.18,0015.19,0002.67
2024-03-22 06:42:00,SystemResetWarning,0829.3,5.00,000.00,023.5,022.5,000.0,032.2,025.4,17.4,0000.0,0004.21,0014.58,0002.67
2024-03-22 06:43:00,SystemResetWarning,0829.3,5.00,000.00,023.5,022.5,000.0,032.2,025.4,17.4,0000.0,0004.22,0014.25,0002.67
2024-03-22 06:44:00,SystemResetWarning,0829.4,5.00,000.00,023.5,022.5,000.0,032.2,025.4,17.4,0000.0,0004.20,0014.34,0002.67
2024-03-22 06:45:00,SystemResetWarning,0829.4,5.00,000.00,023.5,022.5,000.0,032.2,025.4,17.4,0000.0,0004.11,0014.78,0002.66
2024-03-22 06:46:00,SystemResetWarning,0829.4,5.00,000.00,023.5,022.5,000.0,032.2,025.4,17.4,0000.0,0004.12,0014.94,0002.67
2024-03-22 06:47:00,SystemResetWarning,0829.4,5.00,000.00,023.5,022.5,000.0,032.2,025.4,17.4,0000.0,0004.18,0015.15,0002.67
2024-03-22 06:48:00,SystemResetWarning,0829.4,5.00,000.00,023.5,022.5,000.0,032.2,025.3,17.4,0000.0,0004.19,0015.13,0002.67
2024-03-22 06:49:00,SystemResetWarning,0829.4,5.00,000.00,023.5,022.5,000.0,032.1,025.3,17.4,0000.0,0004.22,0015.67,0002.66
2024-03-22 06:50:00,SystemResetWarning,0829.4,5.00,000.00,023.5,022.5,000.0,032.1,025.3,17.4,0000.0,0004.26,0016.09,0002.67
2024-03-22 06:51:00,SystemResetWarning,0829.3,5.00,000.00,023.5,022.5,000.0,032.1,025.3,17.4,0000.0,0004.28,0016.15,0002.68
2024-03-22 06:52:00,SystemResetWarning,0829.4,5.00,000.00,023.5,022.4,000.0,032.1,025.3,17.4,0000.0,0004.27,0016.97,0002.66
2024-03-22 06:53:00,SystemResetWarning,0829.3,5.00,000.00,023.5,022.4,000.0,032.1,025.3,17.4,0000.0,0004.28,0017.41,0002.67
2024-03-22 06:54:00,SystemResetWarning,0829.3,5.00,000.00,023.5,022.4,000.0,032.1,025.3,17.4,0000.0,0004.30,0019.21,0002.67
2024-03-22 06:55:00,SystemResetWarning,0829.4,5.00,000.00,023.4,022.4,000.0,032.1,025.3,17.4,0000.0,0004.28,0018.80,0002.67
2024-03-22 06:56:00,SystemResetWarning,0829.4,5.00,000.00,023.4,022.4,000.0,032.1,025.3,17.5,0000.0,0004.33,0018.46,0002.67
2024-03-22 06:57:00,SystemResetWarning,0829.5,5.00,000.00,023.4,022.4,000.0,032.1,025.3,17.5,0000.0,0004.38,0018.53,0002.68
2024-03-22 06:58:00,SystemResetWarning,0829.6,5.01,000.00,023.4,022.4,000.0,032.1,025.2,17.5,0000.0,0004.33,0018.55,0002.68
2024-03-22 06:59:00,SystemResetWarning,0829.6,5.01,000.00,023.4,022.4,000.0,032.1,025.2,17.5,0000.0,0004.30,0019.56,0002.68
